Weather History for Scappoose, OR

Change the Weather History Date:

Tuesday, April 9, 2013

  Actual Average Record
Temperature  
Mean Temperature 44 °F -  
Max Temperature 55 °F - 75 °F (2004)
Min Temperature 33 °F - 28 °F (1999)
Degree Days  
Heating Degree Days 21    
Month to date heating degree days 134  
Since 1 July heating degree days 4081  
Cooling Degree Days 0    
Month to date cooling degree days 0  
Year to date cooling degree days 0  
Moisture  
Dew Point 41 °F    
Average Humidity 83    
Maximum Humidity 100    
Minimum Humidity 66    
Precipitation  
Precipitation 0.00 in - 0.51 in (2002)
Month to date precipitation 1.47  
Year to date precipitation 7.92  
Sea Level Pressure  
Sea Level Pressure 30.33 in    
Wind  
Wind Speed 1 mph (SSE)    
Max Wind Speed 8 mph    
Max Gust Speed 10 mph    
Visibility 10 miles    
Events      
T = Trace of Precipitation, MM = Missing Value Source: NWS Daily Summary

Daily Weather History Graph

Daily Weather History Graph

Search for Another Location

Airport:

Trip Planner

Search our weather history database for the weather conditions in past years. The results will help you decide how hot, cold, wet, or windy it might be!

Date:

Astronomy

Apr. 09, 2013 Rise Set
Actual Time 6:35 AM PDT 7:50 PM PDT
Civil Twilight 6:05 AM PDT 8:21 PM PDT
Nautical Twilight 5:28 AM PDT 8:58 PM PDT
Astronomical Twilight 4:49 AM PDT 9:37 PM PDT
Moon 6:02 AM PDT (4/9) 7:32 PM PDT (4/9)
Length of Visible Light 14h 16m
Length of Day
13h 14m
Waning Crescent, 0% of the Moon is Illuminated
Apr 9
Waning Crescent
Apr 10
New
Apr 18
First Quarter
Apr 25
Full
May 2
Last Quarter

Hourly Weather History & Observations

Time (PDT) Temp. Windchill Dew Point Humidity Pressure Visibility Wind Dir Wind Speed Gust Speed Precip Events Conditions
12:53 AM 39.0 °F - 37.0 °F 93% 30.31 in 10.0 mi Calm Calm - N/A   Clear
1:53 AM 37.9 °F - 36.0 °F 93% 30.32 in 10.0 mi Calm Calm - N/A   Mostly Cloudy
2:53 AM 37.0 °F - 35.1 °F 93% 30.32 in 10.0 mi Calm Calm - N/A   Partly Cloudy
3:53 AM 36.0 °F - 34.0 °F 93% 30.32 in 10.0 mi Calm Calm - N/A   Clear
4:53 AM 35.1 °F - 34.0 °F 96% 30.34 in 9.0 mi Calm Calm - N/A   Clear
5:01 AM 35.6 °F 32.8 °F 33.8 °F 93% 30.34 in 10.0 mi West 3.5 mph - N/A   Partly Cloudy
5:53 AM 36.0 °F 33.3 °F 35.1 °F 97% 30.35 in 10.0 mi WNW 3.5 mph - N/A   Scattered Clouds
6:53 AM 37.0 °F - 35.1 °F 93% 30.34 in 6.0 mi Calm Calm - N/A   Partly Cloudy
7:53 AM 39.0 °F - 37.9 °F 96% 30.35 in 10.0 mi Calm Calm - N/A   Mostly Cloudy
8:53 AM 42.1 °F - 39.9 °F 92% 30.36 in 10.0 mi Calm Calm - N/A   Overcast
9:24 AM 44.6 °F - 39.2 °F 81% 30.37 in 10.0 mi Calm Calm - N/A   Overcast
9:35 AM 44.6 °F - 41.0 °F 87% 30.37 in 10.0 mi Calm Calm - N/A   Overcast
9:45 AM 44.6 °F - 41.0 °F 87% 30.37 in 10.0 mi Calm Calm - N/A   Overcast
9:53 AM 44.1 °F - 41.0 °F 89% 30.37 in 10.0 mi Calm Calm - N/A   Overcast
10:43 AM 46.4 °F - 42.8 °F 87% 30.37 in 10.0 mi Calm Calm - N/A   Overcast
10:53 AM 46.0 °F - 41.0 °F 83% 30.38 in 10.0 mi Calm Calm - N/A   Overcast
11:53 AM 48.0 °F - 41.0 °F 77% 30.38 in 10.0 mi Calm Calm - N/A   Overcast
12:53 PM 51.1 °F - 43.0 °F 74% 30.35 in 10.0 mi SSE 5.8 mph - N/A   Overcast
1:53 PM 51.1 °F - 42.1 °F 71% 30.35 in 10.0 mi SSE 3.5 mph - N/A   Overcast
2:53 PM 54.0 °F - 43.0 °F 66% 30.34 in 10.0 mi SE 5.8 mph - N/A   Overcast
3:53 PM 54.0 °F - 43.0 °F 66% 30.33 in 10.0 mi Calm Calm - N/A   Overcast
4:53 PM 54.0 °F - 44.1 °F 69% 30.31 in 10.0 mi ESE 4.6 mph - N/A   Overcast
5:53 PM 54.0 °F - 43.0 °F 66% 30.30 in 10.0 mi ESE 3.5 mph - N/A   Overcast
6:53 PM 54.0 °F - 44.1 °F 69% 30.28 in 10.0 mi Calm Calm - N/A   Overcast
7:53 PM 53.1 °F - 45.0 °F 74% 30.27 in 10.0 mi Calm Calm - N/A   Overcast
8:53 PM 51.1 °F - 46.0 °F 83% 30.28 in 10.0 mi Calm Calm - N/A   Overcast
9:53 PM 51.1 °F - 46.0 °F 83% 30.28 in 10.0 mi Calm Calm - N/A   Overcast
10:53 PM 50.0 °F - 46.0 °F 86% 30.25 in 10.0 mi Calm Calm - N/A   Overcast
11:53 PM 50.0 °F - 46.0 °F 86% 30.24 in 10.0 mi Calm Calm - N/A   Overcast